Tracking 27420 objects as of 28-May-2023
HD Live streaming from Space Station
objects crossing your sky now

STARLINK-6310

Track STARLINK-6310 now!
10-day predictions
STARLINK-6310 is classified as:


NORAD ID: 56533
Int'l Code: 2023-065AG
Perigee: 360.9 km
Apogee: 363.4 km
Inclination: 43.0 °
Period: 91.6 minutes
Semi major axis: 6733 km
RCS: Unknown
Launch date: May 14, 2023
Source: United States (US)
Launch site: AIR FORCE EASTERN TEST RANGE (AFETR)
Your satellite tracking list
Your tracking list is empty




NASA's NSSDC Master Catalog

Two Line Element Set (TLE):
1 56533U 23065AG  23147.87368944  .00004365  00000-0  36707-4 0  9999
2 56533  43.0007   1.8336 0001896 267.3877  92.6773 15.71359694  3369
Source of the keplerian elements: AFSPC